星链-2410 (STARLINK-2410 )

导读 | 星芒AI

STARLINK-2410 是 SpaceX Starlink 项目中的一颗低轨通信卫星,旨在为全球用户提供高速互联网服务。该卫星采用可重复使用设计,搭载先进通信设备,支持宽带数据传输。作为 Starlink 卫星群的一部分,它运行在约 550 公里高度的近地轨道,有助于减少延迟并提高连接稳定性。该计划致力于为偏远和网络基础设施不足的地区提供可靠网络接入。

基本信息
目录编号:
47825
目录名称:
STARLINK-2410
国际标识:
2021-018AQ
轨道中心:
EARTH
卫星名称:
星链-2410
卫星全名:
星链-2410 (STARLINK-2410 )
卫星状态:
在轨 (已飞行1694 天)
发射日期:
2021-03-11 UTC
国别 :
美国 (US)
星等 :
--
轨道信息
数据来源 国际轨道数据 AOE轨道数据
星历时间 2025-10-30T02:32:28+0800
18小时前
查看轨道信息
2025-10-28T10:00:00+0800
2天前
查看轨道信息
半长轴 6925.307km 6925.37km
偏心率 0.0001475 0.0001526
轨道倾角 53.051° 53.052°
近地点辐角 94.922° 82.816°
升交点赤经 119.328° 126.911°
平近点角 265.194° 111.525°
近地点 546.15km 546.178km
远地点 548.194km 548.292km
周期 95.591分钟 95.593分钟
每日圈数 15.064138 15.063931
详细信息
固有亮度:
5
最大亮度:
2.5
卫星平台:
Starlink V1.0
覆盖范围:
全球
运营商:
太空探索技术公司
运营商所在国:
美国
制造商(研发单位):
太空探索技术公司
制造商所在国:
美国
使用方式:
暂无
卫星简介
星链(Starlink)计划是由太空探索技术公司(SpaceX)提出的一个巨型低轨卫星互联网星座项目,计划在2019年至2024年间在太空搭建由约1.2万颗卫星组成的“星链”网络,其中1584颗将部署在地球上空550千米处的近地轨道,并从2020年开始工作。该卫星仍在工作。
2D轨道图
3D轨道图
轨道高度分析图
轨道倾角分析图
轨道综合分析图
查看轨道综合分析图